Missoula, MT

8:54 PM MDT on May 22, 2017 (GMT -0600)
Missoula International

Weather History for KMSO - November, 2012

Change the Weather History Date:

Monday, November 5, 2012

  Actual Average Record
Temperature  
Mean Temperature 55 °F 38 °F  
Max Temperature 67 °F 47 °F 67 °F (1934)
Min Temperature 43 °F 28 °F 5 °F (2003)
Degree Days  
Heating Degree Days 10 27  
Month to date heating degree days 90 133  
Since 1 July heating degree days 893 1075  
Cooling Degree Days 0 0  
Month to date cooling degree days 0 0  
Year to date cooling degree days 415 332  
Growing Degree Days 6 (Base 50)    
Moisture  
Dew Point 43 °F    
Average Humidity 67    
Maximum Humidity 93    
Minimum Humidity 40    
Precipitation  
Precipitation 0.00 in 0.03 in 2.32 in (1927)
Month to date precipitation 0.07 0.15  
Year to date precipitation 12.40 12.23  
Snow  
Snow 0.00 in - - ()
Month to date snowfall 0.0  
Year to date snowfall 33.2  
Since 1 July snowfall 4.0  
Snow Depth 0.00 in    
Sea Level Pressure  
Sea Level Pressure 30.26 in    
Wind  
Wind Speed 6 mph (North)    
Max Wind Speed 20 mph    
Max Gust Speed 24 mph    
Visibility 10 miles    
Events      
T = Trace of Precipitation, MM = Missing Value Source: NWS Daily Summary

Daily Weather History Graph

Daily Weather History Graph

Search for Another Location

Airport or City:

Trip Planner

Search our weather history database for the weather conditions in past years. The results will help you decide how hot, cold, wet, or windy it might be!

Date:

Astronomy

Nov. 05, 2012 Rise Set
Actual Time 7:25 AM MST 5:13 PM MST
Civil Twilight 6:53 AM MST 5:45 PM MST
Nautical Twilight 6:17 AM MST 6:22 PM MST
Astronomical Twilight 5:41 AM MST 6:57 PM MST
Moon 10:56 PM MST (11/5) 12:47 PM MST (11/5)
Length of Visible Light 10h 52m
Length of Day
9h 48m
Waning Gibbous, 62% of the Moon is Illuminated
Nov 5
Waning Gibbous
Nov 6
Last Quarter
Nov 13
New
Nov 20
First Quarter
Nov 28
Full

Hourly Weather History & Observations

Time (MST) Temp. Windchill Dew Point Humidity Pressure Visibility Wind Dir Wind Speed Gust Speed Precip Events Conditions
12:53 AM 50.0 °F - 46.0 °F 86% 30.32 in 10.0 mi East 3.5 mph - N/A   Overcast
1:53 AM 48.9 °F - 46.0 °F 90% 30.32 in 10.0 mi WNW 4.6 mph - N/A   Overcast
2:53 AM 48.0 °F - 46.0 °F 93% 30.31 in 10.0 mi NNW 5.8 mph - N/A   Overcast
3:53 AM 50.0 °F - 46.0 °F 86% 30.30 in 10.0 mi South 9.2 mph - N/A   Overcast
4:53 AM 48.0 °F - 46.0 °F 93% 30.28 in 10.0 mi ESE 3.5 mph - N/A   Overcast
5:53 AM 52.0 °F - 44.1 °F 74% 30.27 in 10.0 mi ESE 6.9 mph - N/A   Overcast
6:53 AM 53.1 °F - 43.0 °F 69% 30.25 in 10.0 mi ESE 8.1 mph - N/A   Overcast
7:53 AM 54.0 °F - 43.0 °F 66% 30.26 in 10.0 mi East 6.9 mph - N/A   Overcast
8:53 AM 54.0 °F - 44.1 °F 69% 30.27 in 10.0 mi ESE 5.8 mph - N/A   Overcast
9:53 AM 57.9 °F - 44.1 °F 60% 30.27 in 10.0 mi East 5.8 mph - N/A   Overcast
10:53 AM 60.1 °F - 44.1 °F 55% 30.25 in 10.0 mi SSE 3.5 mph - N/A   Overcast
11:53 AM 62.1 °F - 44.1 °F 52% 30.25 in 10.0 mi WSW 3.5 mph - N/A   Overcast
12:53 PM 64.9 °F - 44.1 °F 47% 30.22 in 10.0 mi NW 9.2 mph - N/A   Mostly Cloudy
1:53 PM 66.0 °F - 43.0 °F 43% 30.21 in 10.0 mi WNW 3.5 mph - N/A   Overcast
2:53 PM 64.9 °F - 39.9 °F 40% 30.22 in 10.0 mi NW 13.8 mph - N/A   Scattered Clouds
3:53 PM 64.0 °F - 39.9 °F 41% 30.23 in 10.0 mi WNW 12.7 mph - N/A   Scattered Clouds
4:53 PM 60.1 °F - 41.0 °F 49% 30.25 in 10.0 mi WNW 10.4 mph - N/A   Scattered Clouds
5:53 PM 57.9 °F - 39.9 °F 51% 30.24 in 10.0 mi WNW 15.0 mph - N/A   Clear
6:53 PM 53.1 °F - 39.9 °F 61% 30.27 in 10.0 mi Calm Calm - N/A   Clear
7:53 PM 52.0 °F - 39.9 °F 63% 30.26 in 10.0 mi Calm Calm - N/A   Clear
8:53 PM 50.0 °F - 39.0 °F 66% 30.26 in 10.0 mi North 4.6 mph - N/A   Clear
9:53 PM 46.9 °F - 39.9 °F 77% 30.25 in 10.0 mi SSW 4.6 mph - N/A   Partly Cloudy
10:53 PM 45.0 °F 41.8 °F 39.0 °F 80% 30.27 in 10.0 mi NW 5.8 mph - N/A   Clear
11:53 PM 44.1 °F 42.5 °F 39.0 °F 82% 30.26 in 10.0 mi ESE 3.5 mph - N/A   Partly Cloudy